Weather History for New Bern, NC

Change the Weather History Date:

Friday, December 20, 2013

  Actual Average Record
Temperature  
Mean Temperature 55 °F 46 °F  
Max Temperature 72 °F 56 °F 74 °F (1987)
Min Temperature 37 °F 35 °F 16 °F (2004)
Degree Days  
Heating Degree Days 10 19  
Month to date heating degree days 281 343  
Since 1 July heating degree days 704 770  
Cooling Degree Days 0 0  
Month to date cooling degree days 12 0  
Year to date cooling degree days 2018 1900  
Growing Degree Days 4 (Base 50)    
Moisture  
Dew Point 50 °F    
Average Humidity 77    
Maximum Humidity 93    
Minimum Humidity 61    
Precipitation  
Precipitation 0.00 in 0.12 in 1.13 in (1974)
Month to date precipitation 1.43 2.17  
Year to date precipitation 41.71 51.52  
Snow  
Snow 0.00 in - - ()
Month to date snowfall 0.0  
Since 1 July snowfall T  
Snow Depth 0.00 in    
Sea Level Pressure  
Sea Level Pressure 30.24 in    
Wind  
Wind Speed 3 mph (SSW)    
Max Wind Speed 12 mph    
Max Gust Speed 15 mph    
Visibility 10 miles    
Events      
T = Trace of Precipitation, MM = Missing Value Source: NWS Daily Summary

Daily Weather History Graph

Daily Weather History Graph

Search for Another Location

Airport:

Trip Planner

Search our weather history database for the weather conditions in past years. The results will help you decide how hot, cold, wet, or windy it might be!

Date:

Astronomy

Dec. 20, 2013 Rise Set
Actual Time 7:12 AM EST 4:59 PM EST
Civil Twilight 6:43 AM EST 5:28 PM EST
Nautical Twilight 6:12 AM EST 5:59 PM EST
Astronomical Twilight 5:41 AM EST 6:30 PM EST
Moon 8:12 PM EST (12/20) 9:10 AM EST (12/20)
Length of Visible Light 10h 44m
Length of Day
9h 47m
Waning Gibbous, 90% of the Moon is Illuminated
Dec 20
Waning Gibbous
Dec 25
Last Quarter
Jan 1
New
Jan 7
First Quarter
Jan 15
Full

Hourly Weather History & Observations

Time (EST) Temp. Dew Point Humidity Pressure Visibility Wind Dir Wind Speed Gust Speed Precip Events Conditions
12:54 AM 39.9 °F 37.0 °F 89% 30.27 in 10.0 mi Calm Calm - N/A   Clear
1:54 AM 41.0 °F 37.0 °F 86% 30.27 in 10.0 mi Calm Calm - N/A   Clear
2:54 AM 39.0 °F 37.9 °F 96% 30.28 in 10.0 mi Calm Calm - N/A   Clear
3:54 AM 39.9 °F 37.9 °F 93% 30.27 in 10.0 mi Calm Calm - N/A   Clear
4:54 AM 41.0 °F 37.0 °F 86% 30.27 in 10.0 mi Calm Calm - N/A   Clear
5:54 AM 37.9 °F 36.0 °F 93% 30.27 in 10.0 mi Calm Calm - N/A   Clear
6:54 AM 39.9 °F 37.0 °F 89% 30.29 in 10.0 mi Calm Calm - N/A   Partly Cloudy
7:54 AM 42.1 °F 39.0 °F 89% 30.29 in 10.0 mi Calm Calm - N/A   Scattered Clouds
8:54 AM 51.1 °F 46.9 °F 86% 30.28 in 10.0 mi Calm Calm - N/A   Scattered Clouds
9:54 AM 59.0 °F 52.0 °F 78% 30.29 in 10.0 mi Calm Calm - N/A   Mostly Cloudy
10:54 AM 66.0 °F 54.0 °F 65% 30.28 in 10.0 mi Calm Calm - N/A   Mostly Cloudy
11:54 AM 69.1 °F 55.9 °F 63% 30.25 in 10.0 mi South 5.8 mph - N/A   Overcast
12:54 PM 69.1 °F 57.0 °F 65% 30.22 in 10.0 mi SSW 4.6 mph - N/A   Overcast
1:54 PM 69.1 °F 57.0 °F 65% 30.19 in 10.0 mi SSW 9.2 mph - N/A   Overcast
2:54 PM 72.0 °F 57.9 °F 61% 30.18 in 10.0 mi SSW 5.8 mph - N/A   Partly Cloudy
3:54 PM 71.1 °F 57.9 °F 63% 30.17 in 10.0 mi South 6.9 mph - N/A   Clear
4:54 PM 66.9 °F 57.9 °F 73% 30.19 in 10.0 mi South 4.6 mph - N/A   Clear
5:54 PM 64.0 °F 59.0 °F 84% 30.20 in 10.0 mi South 4.6 mph - N/A   Clear
6:54 PM 63.0 °F 57.9 °F 84% 30.21 in 10.0 mi SSW 5.8 mph - N/A   Clear
7:54 PM 62.1 °F 57.9 °F 86% 30.21 in 10.0 mi South 6.9 mph - N/A   Clear
8:54 PM 61.0 °F 57.0 °F 87% 30.20 in 10.0 mi SSW 8.1 mph - N/A   Clear
9:54 PM 59.0 °F 55.0 °F 87% 30.21 in 10.0 mi SSW 3.5 mph - N/A   Partly Cloudy
10:54 PM 57.0 °F 55.0 °F 93% 30.21 in 10.0 mi Calm Calm - N/A   Partly Cloudy
11:54 PM 60.1 °F 55.9 °F 86% 30.20 in 10.0 mi South 4.6 mph - N/A   Clear